Vertical_Velocity
-4 -1 5 -2 2 -0 -2 -1 -1 -4 2 1 1 0 1 0 -0 1 1 2 2 -2
3 4 1 -4 4 4 1 -3 -4 -4 -2 -4 -1 0 -3 -3 1 -3 4 -3 4 -2
-6 -7 -7 -1 -2 -0 -2 2 -2 -4 -3 -2 0 -1 -0 0 -0 -11 -4 1 -4 2
-1 4 3 2 -3 4 -4 -1 2 3 1 1 1 -4 -3 -3 -3 -7 0 0 -0 1
-1 -2 -3 -2 -3 -1 -2 -3 -1 -1 -1 1 0 -2 -3 -1 -8 -7 -0 1 -6 4
0 -4 -6 -7 -6 -4 -1 1 -1 -0 -0 1 -1 1 -4 -1 -5 -5 2 -1 -3 4
-2 -2 -3 1 -1 -2 -2 -2 -1 -0 -1 1 -2 1 1 -6 -3 -5 -0 2 16 -0
-4 -4 -2 -2 -3 -1 -1 1 -1 -1 0 -1 -1 1 -0 -6 -7 -1 -0 1 -2 -3
-9 -3 -3 -7 -4 -5 -3 -1 -1 -1 -4 -5 -6 1 -3 -6 -3 -2 -0 -2 0 -5
0 -1 -2 -3 -5 -3 -2 1 1 -2 1 -4 -3 -2 -3 -2 -5 -1 -1 2 -3 -1
-3 -4 -4 -3 -4 -4 -4 -3 -2 -4 -5 -4 -4 -4 -6 -3 -2 3 3 4 2 -3
0 4 3 1 -1 -1 -5 -5 -6 -4 -5 -4 -3 -6 -7 -6 4 2 2 5 1 3
5 4 2 2 1 -3 -1 -4 -4 -4 -4 -4 -5 -4 -2 0 5 6 4 3 -0 3
1 1 3 -0 3 0 1 1 1 -0 3 6 6 3 4 6 10 8 6 4 1 6
Height
5626 5627 5627 5628 5630 5633 5637 5639 5641 5644 5646 5648 5649 5651 5652 5653 5655 5654 5655 5655 5654 5652
5617 5615 5615 5616 5620 5622 5625 5627 5629 5632 5635 5636 5637 5638 5639 5640 5641 5641 5641 5640 5638 5635
5607 5607 5607 5607 5609 5611 5614 5616 5618 5621 5622 5623 5625 5625 5626 5627 5626 5626 5626 5623 5619 5620
5602 5602 5601 5601 5599 5599 5601 5604 5606 5608 5609 5611 5613 5613 5614 5615 5614 5612 5610 5606 5605 5603
5593 5592 5592 5591 5590 5591 5592 5594 5595 5596 5597 5599 5601 5602 5602 5602 5599 5598 5595 5592 5589 5589
5582 5581 5580 5580 5581 5581 5582 5582 5582 5584 5586 5588 5589 5590 5589 5588 5586 5584 5582 5578 5576 5578
5572 5572 5571 5570 5569 5569 5570 5569 5570 5572 5574 5576 5577 5577 5576 5574 5572 5569 5568 5567 5566 5568
5563 5564 5562 5559 5559 5557 5557 5559 5560 5560 5562 5564 5566 5565 5562 5560 5558 5557 5555 5554 5556 5557
5554 5553 5550 5550 5548 5547 5548 5549 5549 5550 5551 5552 5554 5553 5551 5548 5545 5543 5542 5543 5544 5546
5542 5541 5541 5540 5539 5538 5538 5539 5539 5539 5539 5541 5541 5540 5539 5536 5533 5530 5530 5532 5534 5537
5531 5532 5531 5531 5529 5527 5526 5527 5527 5527 5528 5528 5528 5527 5527 5524 5522 5521 5521 5522 5524 5526
5524 5523 5523 5522 5521 5520 5518 5518 5517 5516 5516 5515 5514 5515 5515 5513 5512 5511 5511 5513 5515 5517
5522 5522 5521 5520 5518 5517 5515 5513 5511 5509 5506 5505 5504 5504 5503 5502 5501 5501 5502 5504 5505 5507
5520 5520 5519 5518 5516 5514 5511 5510 5507 5505 5502 5500 5498 5496 5494 5492 5491 5492 5493 5494 5495 5497